LZB974 LBWN-LBSF

Flight info

Callsign LZB974
Flight time 0h 36m
Altitude 28000
Route DICXA2N/09 DICXA T343 UMPIT
Aircraft A319/M-SDE3FGHIRWY/LB1

Departure

Time 2026-05-04 19:24
Airport Varna Airport (LBWN)

Arrival

Time 2026-05-04 20:01
Airport Sofia Airport (LBSF)
Time Latitude Longitude Altitude Speed Heading
2026-05-04 18:42 43.23498 27.82844 223 ft 0 kts
2026-05-04 18:43 43.23498 27.82845 223 ft 0 kts 11°
2026-05-04 19:18 43.23502 27.82846 222 ft 2 kts 11°
2026-05-04 19:18 43.23525 27.82849 222 ft 5 kts
2026-05-04 19:19 43.23551 27.82804 222 ft 9 kts 282°
2026-05-04 19:19 43.23559 27.82696 222 ft 14 kts 276°
2026-05-04 19:19 43.23572 27.82543 222 ft 18 kts 276°
2026-05-04 19:19 43.23587 27.82363 224 ft 16 kts 276°
2026-05-04 19:20 43.23532 27.82254 222 ft 18 kts 187°
2026-05-04 19:20 43.23482 27.82131 222 ft 19 kts 277°
2026-05-04 19:20 43.23499 27.81943 224 ft 22 kts 277°
2026-05-04 19:20 43.23519 27.81725 222 ft 25 kts 277°
2026-05-04 19:21 43.23540 27.81479 222 ft 27 kts 277°
2026-05-04 19:21 43.23559 27.81267 222 ft 24 kts 276°
2026-05-04 19:21 43.23575 27.81095 222 ft 17 kts 278°
2026-05-04 19:21 43.23542 27.80939 222 ft 17 kts 218°
2026-05-04 19:22 43.23516 27.80924 222 ft 0 kts 197°
2026-05-04 19:22 43.23503 27.80920 223 ft 3 kts 185°
2026-05-04 19:22 43.23469 27.80927 222 ft 6 kts 169°
2026-05-04 19:23 43.23417 27.80963 222 ft 10 kts 152°
2026-05-04 19:23 43.23349 27.81026 220 ft 14 kts 131°
2026-05-04 19:23 43.23314 27.81192 221 ft 36 kts 97°
2026-05-04 19:23 43.23257 27.81830 223 ft 98 kts 97°
2026-05-04 19:24 43.23154 27.83021 231 ft 152 kts 96°
2026-05-04 19:24 43.23036 27.84530 740 ft 158 kts 96°
2026-05-04 19:24 43.22903 27.86015 1431 ft 157 kts 96°
2026-05-04 19:24 43.22760 27.87561 1865 ft 173 kts 97°
2026-05-04 19:25 43.22181 27.89128 2117 ft 205 kts 138°
2026-05-04 19:25 43.20759 27.89798 2522 ft 237 kts 181°
2026-05-04 19:25 43.19111 27.89100 3034 ft 262 kts 212°
2026-05-04 19:25 43.17804 27.87345 3877 ft 269 kts 242°
2026-05-04 19:26 43.17224 27.84925 4835 ft 269 kts 267°
2026-05-04 19:26 43.16990 27.82367 5814 ft 273 kts 269°
2026-05-04 19:26 43.16766 27.79749 6707 ft 280 kts 270°
2026-05-04 19:26 43.16534 27.77067 7558 ft 287 kts 270°
2026-05-04 19:27 43.16292 27.74326 8457 ft 293 kts 269°
2026-05-04 19:27 43.16040 27.71533 9323 ft 299 kts 269°
2026-05-04 19:27 43.15778 27.68685 10171 ft 305 kts 269°
2026-05-04 19:27 43.15507 27.65689 10497 ft 329 kts 268°
2026-05-04 19:28 43.15216 27.62473 10809 ft 350 kts 268°
2026-05-04 19:28 43.14907 27.59124 11420 ft 358 kts 268°
2026-05-04 19:28 43.14585 27.55714 12124 ft 363 kts 267°
2026-05-04 19:28 43.14258 27.52257 12831 ft 368 kts 267°
2026-05-04 19:29 43.13927 27.48768 13552 ft 372 kts 267°
2026-05-04 19:29 43.13593 27.45234 14227 ft 376 kts 267°
2026-05-04 19:29 43.13256 27.41665 14863 ft 380 kts 267°
2026-05-04 19:29 43.12915 27.38073 15502 ft 383 kts 266°
2026-05-04 19:30 43.12569 27.34434 16144 ft 386 kts 266°
2026-05-04 19:30 43.12335 27.31971 16574 ft 389 kts 266°
2026-05-04 19:30 43.11867 27.27031 17428 ft 393 kts 266°
2026-05-04 19:30 43.11632 27.24562 17848 ft 396 kts 266°
2026-05-04 19:31 43.11274 27.20812 18473 ft 399 kts 265°
2026-05-04 19:31 43.10911 27.17030 19048 ft 402 kts 265°
2026-05-04 19:31 43.10543 27.13224 19636 ft 405 kts 265°
2026-05-04 19:31 43.10173 27.09399 20225 ft 407 kts 265°
2026-05-04 19:32 43.09801 27.05555 20802 ft 409 kts 265°
2026-05-04 19:32 43.09427 27.01699 21380 ft 411 kts 265°
2026-05-04 19:32 43.09048 26.97807 21954 ft 413 kts 265°
2026-05-04 19:32 43.08664 26.93899 22501 ft 416 kts 265°
2026-05-04 19:33 43.08273 26.89971 23027 ft 418 kts 265°
2026-05-04 19:33 43.07878 26.86025 23564 ft 420 kts 265°
2026-05-04 19:33 43.07480 26.82052 24001 ft 423 kts 265°
2026-05-04 19:33 43.07082 26.78059 24443 ft 425 kts 265°
2026-05-04 19:34 43.06683 26.74047 24872 ft 427 kts 265°
2026-05-04 19:34 43.06281 26.70018 25300 ft 429 kts 265°
2026-05-04 19:34 43.05877 26.65972 25719 ft 430 kts 265°
2026-05-04 19:34 43.05463 26.61854 26161 ft 432 kts 264°
2026-05-04 19:35 43.05051 26.57785 26634 ft 432 kts 264°
2026-05-04 19:35 43.04632 26.53704 27064 ft 434 kts 264°
2026-05-04 19:35 43.04209 26.49608 27481 ft 436 kts 264°
2026-05-04 19:35 43.03785 26.45504 27883 ft 438 kts 264°
2026-05-04 19:36 43.03358 26.41371 28045 ft 436 kts 264°
2026-05-04 19:36 43.02522 26.33320 28064 ft 425 kts 263°
2026-05-04 19:37 43.01693 26.25317 28067 ft 425 kts 264°
2026-05-04 19:37 43.00861 26.17336 28073 ft 425 kts 263°
2026-05-04 19:38 43.00011 26.09341 28073 ft 425 kts 263°
2026-05-04 19:38 42.99157 26.01348 28064 ft 425 kts 263°
2026-05-04 19:39 42.98305 25.93368 28067 ft 425 kts 263°
2026-05-04 19:39 42.97447 25.85381 28072 ft 425 kts 263°
2026-05-04 19:40 42.96575 25.77407 28066 ft 425 kts 263°
2026-05-04 19:40 42.95703 25.69431 28061 ft 424 kts 263°
2026-05-04 19:41 42.94828 25.61425 28079 ft 424 kts 263°
2026-05-04 19:41 42.93942 25.53478 28078 ft 423 kts 263°
2026-05-04 19:42 42.93057 25.45548 28082 ft 423 kts 263°
2026-05-04 19:42 42.92174 25.37615 28092 ft 423 kts 263°
2026-05-04 19:43 42.91274 25.29658 28091 ft 430 kts 263°
2026-05-04 19:43 42.90813 25.25620 27214 ft 436 kts 263°
2026-05-04 19:43 42.90343 25.21515 26405 ft 438 kts 263°
2026-05-04 19:43 42.89872 25.17436 25883 ft 433 kts 263°
2026-05-04 19:44 42.89407 25.13404 25354 ft 428 kts 264°
2026-05-04 19:44 42.88952 25.09426 24834 ft 423 kts 264°
2026-05-04 19:44 42.88499 25.05480 24332 ft 419 kts 264°
2026-05-04 19:44 42.88047 25.01575 23844 ft 415 kts 264°
2026-05-04 19:45 42.87599 24.97713 23317 ft 411 kts 264°
2026-05-04 19:45 42.87156 24.93885 22859 ft 406 kts 264°
2026-05-04 19:45 42.86716 24.90103 22384 ft 402 kts 263°
2026-05-04 19:45 42.86279 24.86364 21913 ft 397 kts 263°
2026-05-04 19:46 42.85846 24.82677 21466 ft 393 kts 263°
2026-05-04 19:46 42.85414 24.79017 20991 ft 389 kts 263°
2026-05-04 19:46 42.84980 24.75342 20518 ft 386 kts 263°
2026-05-04 19:46 42.84558 24.71793 20036 ft 383 kts 263°
2026-05-04 19:47 42.84127 24.68177 19557 ft 380 kts 263°
2026-05-04 19:47 42.83705 24.64639 19063 ft 378 kts 263°
2026-05-04 19:47 42.83282 24.61113 18568 ft 376 kts 263°
2026-05-04 19:47 42.82861 24.57604 18022 ft 374 kts 263°
2026-05-04 19:48 42.82446 24.54138 17649 ft 365 kts 263°
2026-05-04 19:48 42.82038 24.50744 17036 ft 362 kts 263°
2026-05-04 19:48 42.81633 24.47380 16547 ft 358 kts 263°
2026-05-04 19:48 42.81229 24.44039 16043 ft 357 kts 263°
2026-05-04 19:49 42.80827 24.40716 15569 ft 356 kts 263°
2026-05-04 19:49 42.80423 24.37396 15077 ft 354 kts 263°
2026-05-04 19:49 42.80019 24.34089 14594 ft 354 kts 263°
2026-05-04 19:49 42.79618 24.30825 14388 ft 341 kts 263°
2026-05-04 19:50 42.79235 24.27728 14246 ft 323 kts 263°
2026-05-04 19:50 42.78867 24.24753 13865 ft 316 kts 263°
2026-05-04 19:50 42.78507 24.21822 13360 ft 312 kts 264°
2026-05-04 19:50 42.77996 24.18953 12809 ft 312 kts 253°
2026-05-04 19:51 42.77105 24.16263 12300 ft 312 kts 242°
2026-05-04 19:51 42.75879 24.13842 11684 ft 312 kts 232°
2026-05-04 19:51 42.74521 24.11548 11175 ft 310 kts 232°
2026-05-04 19:51 42.73177 24.09266 10615 ft 308 kts 233°
2026-05-04 19:52 42.71862 24.07029 10389 ft 295 kts 233°
2026-05-04 19:52 42.70611 24.04904 10273 ft 280 kts 233°
2026-05-04 19:52 42.69416 24.02875 10168 ft 273 kts 233°
2026-05-04 19:52 42.68240 24.00876 10035 ft 269 kts 234°
2026-05-04 19:53 42.67223 23.98755 9661 ft 271 kts 248°
2026-05-04 19:53 42.66593 23.96276 8894 ft 283 kts 263°
2026-05-04 19:53 42.66423 23.93602 8112 ft 286 kts 277°
2026-05-04 19:53 42.66591 23.90863 7342 ft 290 kts 278°
2026-05-04 19:54 42.66745 23.88188 7065 ft 275 kts 278°
2026-05-04 19:54 42.66900 23.85686 7010 ft 256 kts 278°
2026-05-04 19:54 42.67048 23.83373 6952 ft 236 kts 279°
2026-05-04 19:54 42.67189 23.81202 6904 ft 223 kts 279°
2026-05-04 19:55 42.67319 23.79165 6759 ft 212 kts 279°
2026-05-04 19:55 42.67446 23.77186 6538 ft 209 kts 279°
2026-05-04 19:55 42.67571 23.75231 6254 ft 206 kts 278°
2026-05-04 19:55 42.67693 23.73299 5973 ft 204 kts 278°
2026-05-04 19:56 42.67815 23.71379 5701 ft 203 kts 278°
2026-05-04 19:56 42.67933 23.69492 5472 ft 198 kts 277°
2026-05-04 19:56 42.68049 23.67647 5175 ft 194 kts 277°
2026-05-04 19:56 42.68161 23.65852 4918 ft 188 kts 277°
2026-05-04 19:57 42.68270 23.64118 4665 ft 180 kts 277°
2026-05-04 19:57 42.68372 23.62473 4437 ft 169 kts 277°
2026-05-04 19:57 42.68468 23.60927 4216 ft 159 kts 276°
2026-05-04 19:57 42.68558 23.59477 4008 ft 148 kts 276°
2026-05-04 19:58 42.68641 23.58141 3826 ft 138 kts 275°
2026-05-04 19:58 42.68720 23.56860 3641 ft 134 kts 274°
2026-05-04 19:58 42.68798 23.55598 3447 ft 135 kts 272°
2026-05-04 19:58 42.68877 23.54317 3263 ft 137 kts 271°
2026-05-04 19:59 42.68957 23.53024 3084 ft 137 kts 272°
2026-05-04 19:59 42.69036 23.51734 2902 ft 136 kts 272°
2026-05-04 19:59 42.69115 23.50451 2730 ft 136 kts 273°
2026-05-04 19:59 42.69193 23.49170 2538 ft 136 kts 274°
2026-05-04 20:00 42.69271 23.47894 2369 ft 135 kts 274°
2026-05-04 20:00 42.69349 23.46620 2193 ft 135 kts 274°
2026-05-04 20:00 42.69426 23.45347 2011 ft 135 kts 274°
2026-05-04 20:00 42.69509 23.44062 1816 ft 135 kts 274°
2026-05-04 20:01 42.69577 23.42893 1751 ft 111 kts 275°
2026-05-04 20:01 42.69625 23.42073 1746 ft 49 kts 274°
2026-05-04 20:01 42.69623 23.41714 1746 ft 36 kts 257°
2026-05-04 20:01 42.69565 23.41508 1750 ft 11 kts 245°
2026-05-04 20:02 42.69527 23.41398 1744 ft 14 kts 245°
2026-05-04 20:02 42.69485 23.41261 1745 ft 17 kts 248°
2026-05-04 20:02 42.69386 23.41193 1750 ft 16 kts 192°
2026-05-04 20:02 42.69311 23.41171 1746 ft 18 kts 192°
2026-05-04 20:03 42.69184 23.41134 1750 ft 14 kts 192°
2026-05-04 20:03 42.69116 23.41044 1745 ft 13 kts 253°
2026-05-04 20:03 42.69086 23.40914 1747 ft 16 kts 252°
2026-05-04 20:03 42.69058 23.40796 1743 ft 10 kts 254°
2026-05-04 20:04 42.69062 23.40733 1744 ft 8 kts 276°
2026-05-04 20:04 42.69032 23.40698 1747 ft 4 kts 200°
2026-05-04 20:04 42.69005 23.40688 1749 ft 3 kts 195°
2026-05-04 20:04 42.68999 23.40686 1749 ft 0 kts 195°